When you browse on this site, cookies collect data to enhance your experience and personalize the content and advertising you see.
Visit our Privacy Policy to learn more. By continuing to use the site, you agree to this use of cookies and data.
  • In France
  • List of Countries
  • For 7 days
  • Water Temperature
  • Weather Map
  • Weather Widgets
  • user-avatar
    Login

    Hourly Weather Prutz

    Today, 27 May, Wednesday

    Time Temperature Precipitation Wind Pressure Humidity
    00:00 +3°C° 0 mm 1 mps 641 mmHg 92%
    01:00 +3°C° 0 mm 1 mps 641 mmHg 90%
    02:00 +2°C° 0 mm 1 mps 641 mmHg 89%
    03:00 +2°C° 0 mm 1 mps 640 mmHg 87%
    04:00 +1°C° 0 mm 1 mps 640 mmHg 85%
    05:00 +3°C° 0 mm 1 mps 641 mmHg 77%
    06:00 +5°C° 0 mm 1 mps 641 mmHg 69%
    07:00 +7°C° 0 mm 1 mps 642 mmHg 62%
    08:00 +8°C° 0 mm 2 mps 642 mmHg 55%
    09:00 +10°C° 0 mm 2 mps 643 mmHg 48%
    10:00 +12°C° 0 mm 2 mps 643 mmHg 40%
    11:00 +13°C° 0 mm 2 mps 643 mmHg 38%
    12:00 +14°C° 0 mm 2 mps 643 mmHg 36%
    13:00 +15°C° 0 mm 2 mps 643 mmHg 34%
    14:00 +15°C° 0 mm 2 mps 643 mmHg 36%
    15:00 +15°C° 0 mm 2 mps 643 mmHg 38%
    16:00 +14°C° 0 mm 3 mps 642 mmHg 40%
    17:00 +14°C° 0 mm 2 mps 642 mmHg 49%
    18:00 +12°C° 0 mm 2 mps 642 mmHg 57%
    19:00 +10°C° 0 mm 2 mps 641 mmHg 65%
    20:00 +8°C° 0 mm 2 mps 641 mmHg 73%
    21:00 +7°C° 0 mm 1 mps 640 mmHg 82%
    22:00 +4°C° 0 mm 1 mps 640 mmHg 90%
    23:00 +4°C° 0 mm 1 mps 640 mmHg 90%

    Tomorrow, 28 May, Thursday

    Time Temperature Precipitation Wind Pressure Humidity
    00:00 +4°C° 0 mm 1 mps 639 mmHg 90%
    01:00 +4°C° 0 mm 1 mps 639 mmHg 91%
    02:00 +4°C° 0 mm 1 mps 639 mmHg 90%
    03:00 +4°C° 0 mm 1 mps 639 mmHg 90%
    04:00 +4°C° 0 mm 1 mps 639 mmHg 89%
    05:00 +5°C° 0 mm 1 mps 639 mmHg 81%
    06:00 +7°C° 0 mm 1 mps 639 mmHg 74%
    07:00 +9°C° 0 mm 1 mps 639 mmHg 66%
    08:00 +9°C° 0 mm 2 mps 640 mmHg 59%
    09:00 +10°C° 0 mm 2 mps 640 mmHg 52%
    10:00 +12°C° 0 mm 2 mps 640 mmHg 45%
    11:00 +13°C° 0.1 mm 2 mps 640 mmHg 50%
    12:00 +12°C° 0.1 mm 3 mps 640 mmHg 55%
    13:00 +12°C° 0.1 mm 3 mps 639 mmHg 61%
    14:00 +12°C° 0.5 mm 3 mps 639 mmHg 66%
    15:00 +11°C° 0.5 mm 3 mps 639 mmHg 71%
    16:00 +11°C° 0.5 mm 3 mps 638 mmHg 76%
    17:00 +10°C° 0.3 mm 3 mps 638 mmHg 81%
    18:00 +9°C° 0.3 mm 3 mps 637 mmHg 85%
    19:00 +8°C° 0.3 mm 2 mps 637 mmHg 89%
    20:00 +7°C° 0 mm 2 mps 637 mmHg 92%
    21:00 +6°C° 0 mm 2 mps 637 mmHg 94%
    22:00 +5°C° 0 mm 1 mps 637 mmHg 97%
    23:00 +5°C° 0 mm 1 mps 637 mmHg 96%

    Day after tomorrow, 29 May, Friday

    Time Temperature Precipitation Wind Pressure Humidity
    00:00 +5°C° 0 mm 1 mps 636 mmHg 95%
    01:00 +5°C° 0 mm 1 mps 636 mmHg 95%
    02:00 +4°C° 0 mm 1 mps 636 mmHg 95%
    03:00 +4°C° 0 mm 1 mps 636 mmHg 94%
    04:00 +3°C° 0 mm 1 mps 636 mmHg 94%
    05:00 +4°C° 0 mm 1 mps 636 mmHg 90%
    06:00 +5°C° 0 mm 1 mps 636 mmHg 85%
    07:00 +5°C° 0 mm 2 mps 636 mmHg 81%
    08:00 +6°C° 0 mm 2 mps 636 mmHg 69%
    09:00 +8°C° 0 mm 2 mps 636 mmHg 58%
    10:00 +9°C° 0 mm 2 mps 636 mmHg 46%
    11:00 +10°C° 0 mm 2 mps 636 mmHg 45%
    12:00 +12°C° 0 mm 2 mps 636 mmHg 43%
    13:00 +13°C° 0 mm 2 mps 636 mmHg 41%
    14:00 +12°C° 0 mm 3 mps 636 mmHg 45%
    15:00 +12°C° 0 mm 3 mps 636 mmHg 48%
    16:00 +12°C° 0 mm 3 mps 635 mmHg 51%
    17:00 +11°C° 0 mm 3 mps 635 mmHg 58%
    18:00 +9°C° 0 mm 3 mps 635 mmHg 66%
    19:00 +8°C° 0 mm 2 mps 634 mmHg 73%
    20:00 +6°C° 0 mm 2 mps 634 mmHg 80%
    21:00 +6°C° 0 mm 1 mps 634 mmHg 88%
    22:00 +4°C° 0 mm 1 mps 633 mmHg 96%
    23:00 +3°C° 0 mm 0 mps 633 mmHg 95%

    30 May, Saturday

    Time Temperature Precipitation Wind Pressure Humidity
    00:00 +3°C° 0 mm 0 mps 633 mmHg 95%
    01:00 +4°C° 0 mm 0 mps 633 mmHg 94%
    02:00 +3°C° 0 mm 0 mps 633 mmHg 93%
    03:00 +3°C° 0 mm 0 mps 633 mmHg 92%
    04:00 +3°C° 0 mm 0 mps 633 mmHg 91%
    05:00 +4°C° 0 mm 0 mps 633 mmHg 88%
    06:00 +6°C° 0 mm 1 mps 633 mmHg 84%
    07:00 +7°C° 0 mm 1 mps 634 mmHg 80%
    08:00 +8°C° 0 mm 1 mps 634 mmHg 76%
    09:00 +8°C° 0 mm 2 mps 634 mmHg 72%
    10:00 +9°C° 0 mm 2 mps 634 mmHg 68%
    11:00 +9°C° 0.1 mm 2 mps 634 mmHg 67%
    12:00 +10°C° 0.1 mm 2 mps 634 mmHg 66%
    13:00 +10°C° 0.1 mm 3 mps 634 mmHg 65%
    14:00 +10°C° 0.1 mm 3 mps 634 mmHg 65%
    15:00 +10°C° 0.1 mm 3 mps 634 mmHg 65%
    16:00 +10°C° 0.1 mm 3 mps 634 mmHg 65%
    17:00 +9°C° 0.1 mm 3 mps 633 mmHg 69%
    18:00 +8°C° 0.1 mm 2 mps 633 mmHg 72%
    19:00 +7°C° 0.1 mm 2 mps 633 mmHg 76%
    20:00 +6°C° 0 mm 2 mps 633 mmHg 82%
    21:00 +5°C° 0 mm 1 mps 633 mmHg 88%
    22:00 +4°C° 0 mm 1 mps 633 mmHg 94%
    23:00 +2°C° 0 mm 0 mps 632 mmHg 95%

    31 May, Sunday

    Time Temperature Precipitation Wind Pressure Humidity
    00:00 +2°C° 0 mm 0 mps 632 mmHg 95%
    01:00 +1°C° 0 mm 0 mps 632 mmHg 95%
    02:00 +1°C° 0 mm 0 mps 632 mmHg 95%
    03:00 +1°C° 0 mm 0 mps 632 mmHg 94%
    04:00 +1°C° 0 mm 0 mps 632 mmHg 93%
    05:00 +3°C° 0 mm 0 mps 632 mmHg 86%
    06:00 +6°C° 0 mm 1 mps 633 mmHg 80%
    07:00 +7°C° 0 mm 1 mps 633 mmHg 73%
    08:00 +9°C° 0 mm 1 mps 634 mmHg 67%
    09:00 +10°C° 0 mm 2 mps 634 mmHg 60%
    10:00 +12°C° 0 mm 2 mps 634 mmHg 53%
    11:00 +13°C° 0 mm 2 mps 634 mmHg 52%
    12:00 +13°C° 0 mm 2 mps 634 mmHg 50%
    13:00 +13°C° 0 mm 3 mps 634 mmHg 48%
    14:00 +13°C° 0.1 mm 3 mps 634 mmHg 50%
    15:00 +13°C° 0.1 mm 3 mps 634 mmHg 52%
    16:00 +13°C° 0.1 mm 3 mps 634 mmHg 54%
    17:00 +11°C° 0.1 mm 3 mps 633 mmHg 62%
    18:00 +10°C° 0.1 mm 3 mps 633 mmHg 70%
    19:00 +9°C° 0.1 mm 2 mps 633 mmHg 78%
    20:00 +7°C° 0 mm 2 mps 632 mmHg 84%
    21:00 +7°C° 0 mm 1 mps 632 mmHg 90%
    22:00 +5°C° 0 mm 1 mps 632 mmHg 95%
    23:00 +5°C° 0 mm 1 mps 632 mmHg 95%

    1 June, Monday

    Time Temperature Precipitation Wind Pressure Humidity
    00:00 +5°C° 0 mm 1 mps 632 mmHg 95%
    01:00 +5°C° 0 mm 1 mps 632 mmHg 95%
    02:00 +4°C° 0 mm 1 mps 631 mmHg 94%
    03:00 +4°C° 0 mm 1 mps 631 mmHg 94%
    04:00 +3°C° 0 mm 1 mps 631 mmHg 94%
    05:00 +5°C° 0 mm 1 mps 631 mmHg 85%
    06:00 +7°C° 0 mm 1 mps 632 mmHg 77%
    07:00 +9°C° 0 mm 1 mps 632 mmHg 69%
    08:00 +11°C° 0 mm 1 mps 633 mmHg 64%
    09:00 +12°C° 0 mm 2 mps 633 mmHg 60%
    10:00 +14°C° 0 mm 2 mps 634 mmHg 55%
    11:00 +14°C° 0 mm 2 mps 634 mmHg 56%
    12:00 +15°C° 0 mm 2 mps 633 mmHg 57%
    13:00 +14°C° 0 mm 3 mps 633 mmHg 58%
    14:00 +15°C° 0.1 mm 2 mps 633 mmHg 59%
    15:00 +15°C° 0.1 mm 2 mps 633 mmHg 61%
    16:00 +15°C° 0.1 mm 2 mps 633 mmHg 63%
    17:00 +14°C° 0.1 mm 2 mps 633 mmHg 68%
    18:00 +13°C° 0.1 mm 2 mps 632 mmHg 74%
    19:00 +13°C° 0.1 mm 2 mps 632 mmHg 79%
    20:00 +11°C° 0 mm 1 mps 632 mmHg 84%
    21:00 +9°C° 0 mm 1 mps 631 mmHg 90%
    22:00 +5°C° 0 mm 0 mps 631 mmHg 95%
    23:00 +7°C° 0 mm 1 mps 631 mmHg 94%
    Show more